Date String (YYYY-MM-DD hh:mm:ss) UTC,Instrument flags,absolute air pressure of the measurement (hPa),sample flow rate (lpm),inlet stack bypass flow (lpm),air temperature of the measurement (°C),ambient temperature measured by the external sensor (°C),aerosol sample conditioner tube jacket temperature (°C),OPC LED temperature (°C),internal box temperature (°C),relative humidity of the measurement (%),span deviation,mass concentration of particles derived from Lorenz-Mie calculation of OPC scattering (μg/m³),mass concentration of particles derived from Lorenz-Mie calculation of OPC scattering (μg/m³),mass concentration of particles derived from Lorenz-Mie calculation of OPC scattering (μg/m³)
DateTimeUTC,F1_M11,P_M11,Q1_M11,Q2_M11,T1_M11,T2_M11,T3_M11,T4_M11,T5_M11,U1_M11,ZSPAN_M11,X0_M11,X2_M11,X1_M11
2023-10-01 18:00:00,SystemResetWarning,0826.4,5.00,000.00,028.4,027.4,000.0,036.8,030.3,23.6,0000.0,0010.71,0004.10,0003.50
2023-10-01 18:01:00,SystemResetWarning,0826.4,4.98,000.00,028.5,026.7,000.0,036.8,030.3,23.4,0000.0,0010.89,0004.13,0003.50
2023-10-01 18:02:00,SystemResetWarning,0826.3,5.01,000.00,028.4,024.9,000.0,036.8,030.1,23.0,0000.0,0010.21,0004.08,0003.49
2023-10-01 18:03:00,SystemResetWarning,0826.4,5.00,000.00,028.4,024.3,000.0,036.7,030.0,23.4,0000.0,0010.10,0004.08,0003.49
2023-10-01 18:04:00,SystemResetWarning,0826.4,5.02,000.00,028.3,024.6,000.0,036.7,029.9,23.6,0000.0,0009.88,0004.10,0003.48
2023-10-01 18:05:00,SystemResetWarning,0826.3,5.00,000.00,028.2,025.0,000.0,036.7,029.8,23.4,0000.0,0009.41,0004.09,0003.47
2023-10-01 18:06:00,SystemResetWarning,0826.3,4.99,000.00,028.2,025.4,000.0,036.7,029.8,23.2,0000.0,0009.51,0004.07,0003.47
2023-10-01 18:07:00,SystemResetWarning,0826.2,5.00,000.00,028.2,025.8,000.0,036.7,029.9,23.1,0000.0,0009.91,0004.11,0003.47
2023-10-01 18:08:00,SystemResetWarning,0826.3,5.00,000.00,028.2,026.2,000.0,036.7,029.9,23.2,0000.0,0009.44,0004.11,0003.47
2023-10-01 18:09:00,SystemResetWarning,0826.2,5.00,000.00,028.2,026.5,000.0,036.7,030.0,22.7,0000.0,0009.28,0004.11,0003.48
2023-10-01 18:10:00,SystemResetWarning,0826.2,4.99,000.00,028.3,026.7,000.0,036.7,030.1,22.7,0000.0,0009.20,0004.08,0003.48
2023-10-01 18:11:00,SystemResetWarning,0826.2,5.00,000.00,028.3,027.0,000.0,036.8,030.2,22.9,0000.0,0009.00,0004.10,0003.48
2023-10-01 18:12:00,SystemResetWarning,0826.2,5.00,000.00,028.3,027.2,000.0,036.8,030.2,22.8,0000.0,0009.07,0004.08,0003.48
2023-10-01 18:13:00,SystemResetWarning,0826.2,5.00,000.00,028.4,027.3,000.0,036.8,030.3,22.0,0000.0,0009.93,0004.11,0003.48
2023-10-01 18:14:00,SystemResetWarning,0826.2,4.99,000.00,028.4,027.1,000.0,036.8,030.3,21.2,0000.0,0010.18,0004.12,0003.48
2023-10-01 18:15:00,SystemResetWarning,0826.2,4.99,000.00,028.4,025.5,000.0,036.8,030.2,21.2,0000.0,0010.28,0004.14,0003.48
2023-10-01 18:16:00,SystemResetWarning,0826.1,5.00,000.00,028.3,024.5,000.0,036.7,030.0,20.9,0000.0,0010.11,0004.16,0003.49
2023-10-01 18:17:00,SystemResetWarning,0826.0,5.02,000.00,028.3,024.7,000.0,036.7,029.9,19.9,0000.0,0009.86,0004.22,0003.50
2023-10-01 18:18:00,SystemResetWarning,0826.1,5.00,000.00,028.2,025.0,000.0,036.7,029.8,20.2,0000.0,0009.07,0004.20,0003.50
2023-10-01 18:19:00,SystemResetWarning,0826.1,5.00,000.00,028.2,025.4,000.0,036.7,029.8,20.2,0000.0,0009.08,0004.21,0003.52
2023-10-01 18:20:00,SystemResetWarning,0826.1,5.00,000.00,028.2,025.8,000.0,036.7,029.9,21.1,0000.0,0009.35,0004.21,0003.51
2023-10-01 18:21:00,SystemResetWarning,0826.0,5.00,000.00,028.2,026.2,000.0,036.7,030.0,22.2,0000.0,0009.52,0004.26,0003.51
2023-10-01 18:22:00,SystemResetWarning,0826.1,5.00,000.00,028.2,026.5,000.0,036.7,030.0,22.1,0000.0,0009.58,0004.30,0003.52
2023-10-01 18:23:00,SystemResetWarning,0826.1,4.99,000.00,028.2,026.8,000.0,036.7,030.1,22.0,0000.0,0009.70,0004.32,0003.53
2023-10-01 18:24:00,SystemResetWarning,0826.1,5.01,000.00,028.3,027.0,000.0,036.7,030.2,22.0,0000.0,0008.80,0004.30,0003.54
2023-10-01 18:25:00,SystemResetWarning,0826.1,5.00,000.00,028.3,027.2,000.0,036.8,030.2,22.3,0000.0,0009.13,0004.30,0003.55
2023-10-01 18:26:00,SystemResetWarning,0826.2,4.99,000.00,028.4,027.3,000.0,036.8,030.3,22.2,0000.0,0009.14,0004.26,0003.56
2023-10-01 18:27:00,SystemResetWarning,0826.2,4.99,000.00,028.4,026.0,000.0,036.7,030.2,21.0,0000.0,0009.53,0004.27,0003.56
2023-10-01 18:28:00,SystemResetWarning,0826.1,5.00,000.00,028.3,024.6,000.0,036.7,030.0,21.0,0000.0,0009.43,0004.24,0003.57
2023-10-01 18:29:00,SystemResetWarning,0826.1,5.01,000.00,028.3,024.6,000.0,036.6,029.9,20.7,0000.0,0009.54,0004.26,0003.58
2023-10-01 18:30:00,SystemResetWarning,0826.1,5.00,000.00,028.2,024.9,000.0,036.6,029.8,20.7,0000.0,0009.62,0004.29,0003.59
2023-10-01 18:31:00,SystemResetWarning,0826.1,5.00,000.00,028.2,025.3,000.0,036.7,029.8,20.6,0000.0,0009.60,0004.28,0003.60
2023-10-01 18:32:00,SystemResetWarning,0826.2,5.00,000.00,028.2,025.7,000.0,036.7,029.9,20.1,0000.0,0009.87,0004.28,0003.61
2023-10-01 18:33:00,SystemResetWarning,0826.1,5.00,000.00,028.2,026.1,000.0,036.7,029.9,20.4,0000.0,0010.18,0004.27,0003.63
2023-10-01 18:34:00,SystemResetWarning,0826.1,4.99,000.00,028.2,026.4,000.0,036.7,030.0,20.6,0000.0,0010.33,0004.25,0003.63
2023-10-01 18:35:00,SystemResetWarning,0826.1,5.00,000.00,028.2,026.7,000.0,036.7,030.1,20.6,0000.0,0010.54,0004.25,0003.63
2023-10-01 18:36:00,SystemResetWarning,0826.0,5.00,000.00,028.3,026.9,000.0,036.7,030.1,20.5,0000.0,0010.69,0004.27,0003.65
2023-10-01 18:37:00,SystemResetWarning,0826.0,5.00,000.00,028.3,027.1,000.0,036.7,030.2,20.5,0000.0,0010.32,0004.28,0003.65
2023-10-01 18:38:00,SystemResetWarning,0826.0,4.99,000.00,028.4,027.0,000.0,036.7,030.2,20.6,0000.0,0010.03,0004.28,0003.65
2023-10-01 18:39:00,SystemResetWarning,0826.1,4.99,000.00,028.3,025.4,000.0,036.7,030.1,20.0,0000.0,0010.06,0004.32,0003.66
2023-10-01 18:40:00,SystemResetWarning,0826.0,5.00,000.00,028.3,024.4,000.0,036.6,029.9,20.4,0000.0,0010.11,0004.34,0003.66
2023-10-01 18:41:00,SystemResetWarning,0826.0,5.02,000.00,028.2,024.7,000.0,036.6,029.9,21.0,0000.0,0010.02,0004.34,0003.67
2023-10-01 18:42:00,SystemResetWarning,0826.0,5.00,000.00,028.2,025.0,000.0,036.6,029.8,21.2,0000.0,0009.87,0004.36,0003.67
2023-10-01 18:43:00,SystemResetWarning,0825.9,5.00,000.00,028.1,025.4,000.0,036.6,029.8,21.0,0000.0,0009.47,0004.35,0003.67
2023-10-01 18:44:00,SystemResetWarning,0825.9,5.00,000.00,028.1,025.8,000.0,036.6,029.8,21.2,0000.0,0009.49,0004.36,0003.66
2023-10-01 18:45:00,SystemResetWarning,0825.9,5.00,000.00,028.1,026.2,000.0,036.7,029.9,20.4,0000.0,0009.18,0004.38,0003.68
2023-10-01 18:46:00,SystemResetWarning,0825.9,5.00,000.00,028.2,026.5,000.0,036.7,030.0,20.8,0000.0,0008.92,0004.38,0003.69
2023-10-01 18:47:00,SystemResetWarning,0825.9,5.00,000.00,028.2,026.8,000.0,036.7,030.0,20.7,0000.0,0008.29,0004.38,0003.70
2023-10-01 18:48:00,SystemResetWarning,0825.9,5.00,000.00,028.3,027.0,000.0,036.7,030.1,20.8,0000.0,0008.49,0004.40,0003.71
2023-10-01 18:49:00,SystemResetWarning,0825.9,5.00,000.00,028.3,027.2,000.0,036.7,030.2,20.7,0000.0,0008.68,0004.41,0003.72
2023-10-01 18:50:00,SystemResetWarning,0825.9,4.99,000.00,028.4,026.7,000.0,036.7,030.2,20.4,0000.0,0008.91,0004.41,0003.72
2023-10-01 18:51:00,SystemResetWarning,0825.9,4.99,000.00,028.3,024.9,000.0,036.6,030.0,20.8,0000.0,0008.82,0004.40,0003.72
2023-10-01 18:52:00,SystemResetWarning,0825.9,5.00,000.00,028.2,024.4,000.0,036.6,029.9,20.6,0000.0,0008.98,0004.38,0003.72
2023-10-01 18:53:00,SystemResetWarning,0825.9,5.01,000.00,028.2,024.7,000.0,036.6,029.8,20.6,0000.0,0009.72,0004.37,0003.72
2023-10-01 18:54:00,SystemResetWarning,0825.9,5.00,000.00,028.1,025.1,000.0,036.6,029.8,20.2,0000.0,0009.73,0004.36,0003.71
2023-10-01 18:55:00,SystemResetWarning,0825.9,5.00,000.00,028.1,025.5,000.0,036.6,029.8,20.1,0000.0,0009.46,0004.38,0003.71
2023-10-01 18:56:00,SystemResetWarning,0825.9,4.99,000.00,028.1,025.9,000.0,036.6,029.9,20.3,0000.0,0010.15,0004.39,0003.70
2023-10-01 18:57:00,SystemResetWarning,0825.9,5.00,000.00,028.1,026.3,000.0,036.6,029.9,19.0,0000.0,0010.19,0004.37,0003.69
2023-10-01 18:58:00,SystemResetWarning,0825.9,5.00,000.00,028.2,026.6,000.0,036.6,030.0,18.8,0000.0,0010.49,0004.37,0003.69
2023-10-01 18:59:00,SystemResetWarning,0825.9,5.00,000.00,028.2,026.9,000.0,036.7,030.1,19.8,0000.0,0011.32,0004.40,0003.69
